Location: Mentone
(34.5413°N, 85.5351°W)
Time: 09:22:35
(UTC-05:00)

ADEOS Rocket - Visible Passes

Search period start: 02 August 2015 00:00
Search period end: 12 August 2015 00:00
Orbit: 860 x 1306 km, 98.7° (Epoch: 01 August)

Date Brightness Start Highest point End Pass type
(mag) Time Alt. Az. Time Alt. Az. Time Alt. Az.
02 Aug 6.0 20:50:19 10° SW 20:55:02 16° W 20:59:21 10° NW visible
03 Aug 5.1 19:58:27 10° SSW 20:05:28 40° W 20:12:37 10° NNW visible
04 Aug 6.1 20:59:09 10° WSW 21:03:02 14° W 21:06:21 10° WNW visible
05 Aug 5.3 20:06:34 10° SSW 20:13:24 34° W 20:20:15 10° NNW visible
06 Aug 6.3 21:08:33 10° WSW 21:11:04 11° W 21:12:49 10° WNW visible
07 Aug 5.6 20:14:44 10° SSW 20:21:19 30° W 20:27:48 10° NW visible
09 Aug 5.8 20:23:00 10° SW 20:29:16 25° W 20:35:17 10° NW visible
11 Aug 5.9 20:31:24 10° SW 20:37:13 22° W 20:42:41 10° NW visible
